Moab, UT

7:02 PM MDT on October 14, 2019 (GMT -0600)
Canyonlands

Weather History for KCNY - August, 2019

Change the Weather History Date:

Monday, August 5, 2019

  Actual Average Record
Temperature  
Mean Temperature 83 °F 80 °F  
Max Temperature 98 °F 95 °F 107 °F (1979)
Min Temperature 68 °F 65 °F 53 °F (1932)
Degree Days  
Heating Degree Days 0 0  
Month to date heating degree days 0 0  
Since 1 June heating degree days 23 17  
Since 1 July heating degree days 0 0  
Cooling Degree Days 18 15  
Month to date cooling degree days 94 75  
Year to date cooling degree days 867 868  
Since 1 June cooling degree days 852 804  
Growing Degree Days 32 (Base 50)    
Moisture  
Dew Point 49 °F    
Average Humidity 37    
Maximum Humidity 61    
Minimum Humidity 13    
Precipitation  
Precipitation 0.00 in 0.03 in 0.79 in (1947)
Month to date precipitation T 0.13  
Year to date precipitation 6.15 4.67  
Sea Level Pressure  
Sea Level Pressure 29.95 in    
Wind  
Wind Speed 6 mph (SE)    
Max Wind Speed 23 mph    
Max Gust Speed 29 mph    
Visibility 10 miles    
Events      
T = Trace of Precipitation, MM = Missing Value Source: NWS Daily Summary

Daily Weather History Graph

Daily Weather History Graph

Search for Another Location

Airport or City:

Astronomy

Aug. 05, 2019 Rise Set
Actual Time 6:23 AM MDT 8:25 PM MDT
Civil Twilight 5:54 AM MDT 8:54 PM MDT
Nautical Twilight 5:18 AM MDT 9:30 PM MDT
Astronomical Twilight 4:40 AM MDT 10:08 PM MDT
Moon 11:40 AM MDT (8/5) 11:43 PM MDT (8/5)
Length of Visible Light 15h 00m
Length of Day
14h 01m
Waxing Crescent, 28% of the Moon is Illuminated
Aug 5
Waxing Crescent
Aug 7
First Quarter
Aug 15
Full
Aug 23
Last Quarter
Aug 30
New

Hourly Weather History & Observations

Time (MDT) Temp. Heat Index Dew Point Humidity Pressure Visibility Wind Dir Wind Speed Gust Speed Precip Events Conditions
12:53 AM 73.9 °F - 54.0 °F 50% 29.97 in 10.0 mi ENE 12.7 mph - N/A   Clear
1:53 AM 72.0 °F - 54.0 °F 53% 29.98 in 10.0 mi East 8.1 mph - N/A   Clear
2:53 AM 71.1 °F - 54.0 °F 55% 29.97 in 10.0 mi Variable 6.9 mph - N/A   Clear
3:53 AM 69.1 °F - 55.0 °F 61% 29.99 in 10.0 mi Calm Calm - N/A   Clear
4:53 AM 70.0 °F - 55.0 °F 59% 29.99 in 10.0 mi SSE 4.6 mph - N/A   Clear
5:53 AM 68.0 °F - 54.0 °F 61% 30.01 in 10.0 mi SSE 8.1 mph - N/A   Clear
6:53 AM 69.1 °F - 55.0 °F 61% 30.03 in 10.0 mi SE 8.1 mph - N/A   Clear
7:53 AM 72.0 °F - 55.9 °F 57% 30.04 in 10.0 mi SSE 6.9 mph - N/A   Clear
8:53 AM 77.0 °F - 55.0 °F 47% 30.04 in 10.0 mi East 8.1 mph - N/A   Clear
9:53 AM 81.0 °F 80.7 °F 55.0 °F 41% 30.03 in 10.0 mi ENE 6.9 mph - N/A   Clear
10:53 AM 82.0 °F 81.3 °F 54.0 °F 38% 30.03 in 10.0 mi ESE 5.8 mph - N/A   Clear
11:53 AM 86.0 °F 84.0 °F 53.1 °F 32% 30.00 in 10.0 mi SE 4.6 mph - N/A   Clear
12:53 PM 88.0 °F - 48.9 °F 26% 29.98 in 10.0 mi SW 4.6 mph - N/A   Clear
1:53 PM 91.9 °F - 48.0 °F 22% 29.96 in 10.0 mi WSW 3.5 mph - N/A   Clear
2:53 PM 95.0 °F - 46.0 °F 19% 29.92 in 10.0 mi NNW 9.2 mph - N/A   Clear
3:53 PM 96.1 °F - 42.1 °F 15% 29.88 in 10.0 mi West 6.9 mph - N/A   Clear
4:53 PM 97.0 °F - 41.0 °F 14% 29.86 in 10.0 mi NW 6.9 mph - N/A   Clear
5:53 PM 97.0 °F - 37.9 °F 13% 29.84 in 10.0 mi Calm Calm - N/A   Clear
6:53 PM 96.1 °F - 37.0 °F 13% 29.84 in 10.0 mi WSW 6.9 mph - N/A   Clear
7:53 PM 90.0 °F - 41.0 °F 18% 29.86 in 10.0 mi NE 18.4 mph 25.3 mph N/A   Clear
8:53 PM 86.0 °F - 43.0 °F 22% 29.86 in 10.0 mi East 10.4 mph - N/A   Clear
9:53 PM 82.0 °F - 45.0 °F 27% 29.88 in 10.0 mi SE 6.9 mph - N/A   Clear
10:53 PM 79.0 °F - 43.0 °F 28% 29.88 in 10.0 mi Calm Calm - N/A   Clear
11:53 PM 75.0 °F - 39.9 °F 28% 29.88 in 10.0 mi Calm Calm - N/A   Clear